Location: Bletchingley
(51.2333°N, 0.1000°W)
Time: 14:44:37
(UTC+00:00)

Cosmos 2266 Rocket - Pass Details

Date: 24 January 2021
Orbit: 934 x 1008 km, 82.9° (Epoch: 05 March)

Event Time Altitude Azimuth Distance (km) Brightness Sun altitude
Rises 05:40:55 0° 354° (N) 3,624 6.9 -19.7°
Reaches altitude 10° 05:43:45 10° 5° (N) 2,668 6.3 -19.3°
Maximum altitude 05:49:04 31° 66° (ENE) 1,590 5.7 -18.4°
Drops below altitude 10° 05:54:20 10° 128° (SE) 2,642 7.2 -17.6°
Sets 05:57:07 0° 138° (SE) 3,583 7.8 -17.2°
